Location: Newark
(35.6799°N, 139.7636°E)
Time: 20:24:36
(UTC+00:00)

Vanguard 3 - Pass Details

Date: 17 December 2019
Orbit: 507 x 3263 km, 33.4° (Epoch: 23 January)

Event Time Altitude Azimuth Distance (km) Brightness Sun altitude
Exits shadow 20:50:31 - 246° (WSW) 2,530 9.3 -10.8°
Reaches altitude 10° 20:51:32 10° 243° (WSW) 2,147 8.9 -10.6°
Maximum altitude 20:56:20 60° 164° (SSE) 1,059 7.9 -9.7°
Drops below altitude 10° 21:04:33 10° 86° (E) 3,595 11.6 -8.2°
Sets 21:08:39 0° 84° (E) 5,055 12.4 -7.4°
